Regional Weather Roundup
Issued by NWS

Home | Current Version | Previous Version | Text Only | Print | Product List | Glossary Off
Versions: 1 2 3 4 5 6 7 8 9 10 11 12 13 14 15 16 17 18 19 20 21 22 23 24 25 26 27 28 29 30 31 32 33 34 35 36 37 38 39 40 41 42 43 44 45 46 47 48 49 50

000
ASUS43 KLSX 270407
RWRMO

WEATHER SUMMARY FOR MISSOURI
NATIONAL WEATHER SERVICE SPRINGFIELD MO
1100 PM CDT MON SEP 26 2016

NOTE: "FAIR" INDICATES FEW OR NO CLOUDS BELOW 12,000 FEET WITH NO
       SIGNIFICANT WEATHER AND/OR OBSTRUCTIONS TO VISIBILITY.
       CURRENT SKY AND/OR WEATHER CONDITIONS ARE NOT AVAILABLE FOR
       CHILLICOTHE AND FARMINGTON.

MOZ001>031-035>038-043-044-053-054-270500-
...NORTHERN AND WESTERN MISSOURI...

CITY           SKY/WX    TMP DP  RH WIND       PRES   REMARKS
KANSAS CTY INT CLEAR     58  45  62 SW7       30.11F
KANSAS C DTWN  CLEAR     62  49  62 S3        30.10F
LEE`S SUMMIT   CLEAR     58  48  69 SW7       30.12F
ST JOSEPH      CLEAR     56  51  84 S3        30.09F
CHILLICOTHE      N/A     56  49  77 VRB3      30.09F
KIRKSVILLE     CLEAR     56  44  64 W5        30.07F

$$
MOZ066>068-077>081-088>096-101>105-270500-
...SOUTHWEST MISSOURI...

CITY           SKY/WX    TMP DP  RH WIND       PRES   REMARKS
SPRINGFIELD    CLEAR     52  46  80 CALM      30.16S
JOPLIN         CLEAR     51  48  89 CALM      30.18S
BRANSON        CLEAR     50  46  87 CALM      30.18S

$$
MOZ032>034-039>042-045>050-055>058-069>072-270500-
...CENTRAL MISSOURI...

CITY           SKY/WX    TMP DP  RH WIND       PRES   REMARKS
COLUMBIA       CLEAR     56  44  64 SW8       30.11S
JEFFERSON CITY CLEAR     54  49  83 CALM      30.11F
ROLLA          CLEAR     54  44  69 W5        30.12F
SEDALIA        CLEAR     57  46  66 SW7       30.13S
WHITEMAN AFB   CLEAR     53  47  79 SW7       30.11F
OSAGE BEACH    CLEAR     52  50  93 CALM      30.14F

$$
MOZ051-052-059>065-270500-
...EAST CENTRAL MISSOURI...

CITY           SKY/WX    TMP DP  RH WIND       PRES   REMARKS
ST LOUIS INTL  CLEAR     62  44  51 CALM      30.10S
SPIRIT OF STL  CLEAR     52  50  93 W5        30.09F
ST CHARLES     CLEAR     52  48  86 CALM      30.08F

$$
MOZ072>076-082>087-097>100-106>115-270500-
...SOUTH CENTRAL AND SOUTHEAST MISSOURI...

CITY           SKY/WX    TMP DP  RH WIND       PRES   REMARKS
CAPE GIRARDEAU CLEAR     52  49  89 CALM      30.11S
FARMINGTON     CLEAR     51  49  92 CALM      30.13F
POPLAR BLUFF   CLEAR     55  53  93 N3        30.12S
WEST PLAINS    CLEAR     52  46  80 CALM      30.17S

$$


USA.gov is the U.S. government's official web portal to all federal, state and local government web resources and services.